Flag for French Polynesia Weather past 2 weeks in Papeete, Tahiti, French Polynesia

Now
79 °F

Passing clouds.


Feels Like: 82 °F
Forecast: 78 / 85 °F
Wind: 3 mph from North

Location: Tahiti-Faaa

Current Time: May 29, 2015 at 8:31:13 PM

Latest Report: May 29, 2015 at 8:00 PM


Visibility: N/A

Pressure: 29.95 "Hg

Humidity: 79%

Dew point: 72 °F

Location of PapeeteLocation

Historic Weather in Papeete — Graph

°F

Papeete temperature yesterday

Maximum temperature yesterday: 88 °F (at 1:30 PM)
Minimum temperature yesterday: 75 °F (at 2:30 AM)
Average temperature yesterday: 81 °F

Past Weeks' High & Low Weather Summary

 TemperatureHumidityPressure
High88 °F (May 18, 10:00 AM)94% (May 15, 7:22 PM)30.07 "Hg (May 15, 7:22 PM)
Low72 °F (May 17, 2:30 AM)52% (May 23, 9:30 AM)29.77 "Hg (May 17, 1:30 PM)
Average80 °F75%29.95 "Hg
* Reported May 14 7:00 PM — May 29 7:30 PM, Papeete, Weather by CustomWeather, © 2015

Note: Actual official high and low records may vary slightly from our data, if they occured in-between our weather recording intervals... More about our weather records

Advertising

Papeete weather history for previous 24 hours

 ConditionsComfort  
Time TempWeatherWind HumidityBarometerVisibility
7:30 PM
Fri, May 29
79 °FPassing clouds.3 mph79%29.95 "HgN/A
7:00 PM79 °FPartly cloudy.No wind79%29.95 "HgN/A
6:30 PM79 °FPartly cloudy.3 mph79%29.92 "HgN/A
6:00 PM79 °FPassing clouds.3 mph79%29.92 "HgN/A
5:30 PM81 °FScattered showers. Partly cloudy.2 mph74%29.92 "HgN/A
5:00 PM81 °FScattered showers. Broken clouds.6 mph74%29.89 "HgN/A
4:30 PM81 °FScattered showers. Broken clouds.3 mph74%29.92 "HgN/A
4:00 PM81 °FScattered showers. Broken clouds.6 mph74%29.92 "HgN/A
3:30 PM79 °FScattered showers. Broken clouds.5 mph84%29.89 "HgN/A
3:00 PM81 °FScattered showers. Broken clouds.8 mph79%29.92 "HgN/A
2:30 PM79 °FSprinkles. Broken clouds.12 mph89%29.92 "HgN/A
2:00 PM84 °FScattered showers. Partly sunny.13 mph74%29.92 "HgN/A
1:30 PM81 °FScattered showers. Partly sunny.15 mph79%29.92 "HgN/A
1:00 PM84 °FScattered showers. Partly sunny.10 mph70%29.92 "HgN/A
12:30 PM84 °FScattered showers. Partly sunny.13 mph70%29.95 "HgN/A
12:00 PM82 °FPartly sunny.15 mph74%29.95 "HgN/A
11:30 AM84 °FPartly sunny.5 mph66%29.98 "HgN/A
11:00 AM82 °FScattered clouds.16 mph74%29.98 "HgN/A
10:30 AM84 °FPassing clouds.5 mph70%30.01 "HgN/A
10:00 AM84 °FPassing clouds.2 mph70%30.01 "HgN/A
9:30 AM84 °FPassing clouds.1 mph70%30.01 "HgN/A
8:30 AM82 °FPassing clouds.2 mph74%30.01 "HgN/A
8:00 AM82 °FPassing clouds.1 mph70%30.01 "HgN/A
7:30 AM79 °FPassing clouds.No wind79%29.98 "HgN/A
7:00 AM75 °FPassing clouds.3 mph83%29.98 "HgN/A
6:30 AM75 °FPassing clouds.3 mph83%29.98 "HgN/A
6:00 AM77 °FWarm.2 mph79%29.98 "HgN/A
5:30 AM77 °FPassing clouds.2 mph79%29.95 "HgN/A
5:00 AM79 °FPartly cloudy.2 mph79%29.95 "HgN/A
4:30 AM79 °FPassing clouds.2 mph79%29.95 "HgN/A
4:00 AM79 °FOvercast.3 mph84%29.95 "HgN/A
3:30 AM79 °FMostly cloudy.2 mph79%29.95 "HgN/A
3:00 AM77 °FPassing clouds.2 mph83%29.95 "HgN/A
2:30 AM77 °FPassing clouds.2 mph83%29.95 "HgN/A
2:00 AM77 °FPassing clouds.2 mph83%29.98 "HgN/A
1:30 AM77 °FPassing clouds.3 mph83%29.98 "HgN/A
1:00 AM77 °FPassing clouds.3 mph83%29.98 "HgN/A
12:30 AM79 °FPassing clouds.1 mph79%29.98 "HgN/A
12:00 AM79 °FPassing clouds.3 mph84%30.01 "HgN/A
11:30 PM
Thu, May 28
79 °FPassing clouds.1 mph84%30.01 "HgN/A
11:00 PM79 °FPassing clouds.3 mph84%30.01 "HgN/A
10:30 PM81 °FPassing clouds.2 mph79%30.01 "HgN/A
10:00 PM81 °FPassing clouds.2 mph79%30.01 "HgN/A
9:30 PM81 °FPassing clouds.1 mph79%30.01 "HgN/A
9:00 PM81 °FPassing clouds.2 mph79%30.01 "HgN/A
8:30 PM81 °FPassing clouds.2 mph79%30.01 "HgN/A
8:00 PM81 °FPassing clouds.3 mph79%30.01 "HgN/A
Weather by CustomWeather, © 2015

See weather overviewHow to use our weather pages